TimeCDT,TemperatureF,Dew PointF,Humidity,Sea Level PressureIn,VisibilityMPH,Wind Direction,Wind SpeedMPH,Gust SpeedMPH,PrecipitationIn,Events,Conditions,WindDirDegrees,DateUTC
12:52 AM,43.0,33.1,68,29.97,10.0,WNW,5.8,-,N/A,,Overcast,300,2011-10-20 05:52:00
1:52 AM,41.0,32.0,70,29.96,10.0,WNW,6.9,-,N/A,,Clear,300,2011-10-20 06:52:00
2:52 AM,37.9,30.9,76,29.97,10.0,WNW,6.9,-,N/A,,Clear,290,2011-10-20 07:52:00
3:52 AM,37.0,30.0,76,29.97,10.0,WNW,6.9,-,N/A,,Clear,290,2011-10-20 08:52:00
4:52 AM,35.1,28.9,78,29.98,10.0,WNW,6.9,-,N/A,,Clear,300,2011-10-20 09:52:00
5:52 AM,34.0,28.0,79,30.00,10.0,WNW,5.8,-,N/A,,Clear,290,2011-10-20 10:52:00
6:52 AM,33.1,28.0,82,30.01,10.0,WNW,9.2,-,N/A,,Clear,290,2011-10-20 11:52:00
7:52 AM,32.0,27.0,82,30.02,10.0,West,8.1,-,N/A,,Clear,270,2011-10-20 12:52:00
8:52 AM,36.0,28.0,73,30.04,10.0,WNW,6.9,-,N/A,,Clear,300,2011-10-20 13:52:00
9:52 AM,39.9,30.0,68,30.06,10.0,NW,6.9,-,N/A,,Clear,310,2011-10-20 14:52:00
10:52 AM,45.0,32.0,60,30.05,10.0,NW,12.7,19.6,N/A,,Clear,320,2011-10-20 15:52:00
11:52 AM,46.9,30.9,54,30.06,10.0,WNW,11.5,21.9,N/A,,Clear,300,2011-10-20 16:52:00
12:52 PM,48.2,30.2,50,30.04,10.0,WNW,11.5,20.7,N/A,,Partly Cloudy,300,2011-10-20 17:52:00
1:52 PM,48.9,30.9,50,30.03,10.0,NW,13.8,20.7,N/A,,Partly Cloudy,310,2011-10-20 18:52:00
2:52 PM,51.1,30.9,46,30.03,10.0,WNW,12.7,20.7,N/A,,Partly Cloudy,290,2011-10-20 19:52:00
3:52 PM,51.1,30.9,46,30.03,10.0,West,13.8,19.6,N/A,,Partly Cloudy,260,2011-10-20 20:52:00
4:52 PM,51.1,28.9,43,30.03,10.0,West,11.5,20.7,N/A,,Clear,280,2011-10-20 21:52:00
5:52 PM,50.0,28.9,44,30.04,10.0,West,11.5,-,N/A,,Clear,280,2011-10-20 22:52:00
6:52 PM,46.4,28.4,50,30.03,10.0,Calm,Calm,-,N/A,,Clear,0,2011-10-20 23:52:00
7:52 PM,39.0,30.0,70,30.07,10.0,Calm,Calm,-,N/A,,Clear,0,2011-10-21 00:52:00
8:52 PM,37.0,30.0,76,30.09,10.0,Calm,Calm,-,N/A,,Clear,0,2011-10-21 01:52:00
9:52 PM,35.1,30.0,82,30.11,10.0,Calm,Calm,-,N/A,,Clear,0,2011-10-21 02:52:00
10:52 PM,36.0,28.0,73,30.12,10.0,Calm,Calm,-,N/A,,Clear,0,2011-10-21 03:52:00
11:52 PM,34.0,28.9,82,30.13,10.0,Calm,Calm,-,N/A,,Clear,0,2011-10-21 04:52:00